Time,TemperatureF,DewpointF,PressureIn,WindDirection,WindDirectionDegrees,WindSpeedMPH,WindSpeedGustMPH,Humidity,HourlyPrecipIn,Conditions,Clouds,dailyrainin,SoftwareType,DateUTC
2013-02-13 00:00:00,48.0,48.0,30.50,WSW,240,9.0,10.0,100,-99.99,,,-99.99,,2013-02-13 08:00:00,
2013-02-13 00:21:00,48.0,48.0,30.50,WSW,240,9.0,10.0,100,-99.99,,,-99.99,,2013-02-13 08:21:00,
2013-02-13 00:31:00,48.0,48.0,30.50,WSW,240,9.0,10.0,100,-99.99,,,-99.99,,2013-02-13 08:31:00,
2013-02-13 00:42:00,48.0,48.0,30.50,WSW,240,9.0,10.0,100,-99.99,,,-99.99,,2013-02-13 08:42:00,
2013-02-13 00:51:00,48.0,48.0,30.50,WSW,240,9.0,10.0,100,-99.99,,,-99.99,,2013-02-13 08:51:00,
2013-02-13 01:00:00,48.0,48.0,30.49,SW,220,9.0,11.0,100,-99.99,,,-99.99,,2013-02-13 09:00:00,
2013-02-13 01:21:00,48.0,48.0,30.49,SW,220,9.0,11.0,100,-99.99,,,-99.99,,2013-02-13 09:21:00,
2013-02-13 01:31:00,48.0,48.0,30.49,SW,220,9.0,11.0,100,-99.99,,,-99.99,,2013-02-13 09:31:00,
2013-02-13 01:41:00,48.0,48.0,30.49,SW,220,9.0,11.0,100,-99.99,,,-99.99,,2013-02-13 09:41:00,
2013-02-13 01:51:00,48.0,48.0,30.49,SW,220,9.0,11.0,100,-99.99,,,-99.99,,2013-02-13 09:51:00,
2013-02-13 02:00:00,48.0,48.0,30.49,WSW,250,8.0,11.0,100,-99.99,,,-99.99,,2013-02-13 10:00:00,
2013-02-13 02:21:00,48.0,48.0,30.49,WSW,250,8.0,11.0,100,-99.99,,,-99.99,,2013-02-13 10:21:00,
2013-02-13 02:31:00,48.0,48.0,30.49,WSW,250,8.0,11.0,100,-99.99,,,-99.99,,2013-02-13 10:31:00,
2013-02-13 02:41:00,48.0,48.0,30.49,WSW,250,8.0,11.0,100,-99.99,,,-99.99,,2013-02-13 10:41:00,
2013-02-13 02:51:00,48.0,48.0,30.49,WSW,250,8.0,11.0,100,-99.99,,,-99.99,,2013-02-13 10:51:00,
2013-02-13 03:00:00,47.0,47.0,30.48,West,270,9.0,10.0,100,-99.99,,,-99.99,,2013-02-13 11:00:00,
2013-02-13 03:22:00,47.0,47.0,30.48,West,270,9.0,10.0,100,-99.99,,,-99.99,,2013-02-13 11:22:00,
2013-02-13 03:31:00,47.0,47.0,30.48,West,270,9.0,10.0,100,-99.99,,,-99.99,,2013-02-13 11:31:00,
2013-02-13 03:41:00,47.0,47.0,30.48,West,270,9.0,10.0,100,-99.99,,,-99.99,,2013-02-13 11:41:00,
2013-02-13 03:52:00,47.0,47.0,30.48,West,270,9.0,10.0,100,-99.99,,,-99.99,,2013-02-13 11:52:00,
2013-02-13 04:00:00,48.0,48.0,30.48,WSW,250,7.0,9.0,100,-99.99,,,-99.99,,2013-02-13 12:00:00,
2013-02-13 04:21:00,48.0,48.0,30.48,WSW,250,7.0,9.0,100,-99.99,,,-99.99,,2013-02-13 12:21:00,
2013-02-13 04:31:00,48.0,48.0,30.48,WSW,250,7.0,9.0,100,-99.99,,,-99.99,,2013-02-13 12:31:00,
2013-02-13 04:42:00,48.0,48.0,30.48,WSW,250,7.0,9.0,100,-99.99,,,-99.99,,2013-02-13 12:42:00,
2013-02-13 04:51:00,48.0,48.0,30.48,WSW,250,7.0,9.0,100,-99.99,,,-99.99,,2013-02-13 12:51:00,
2013-02-13 05:00:00,48.0,48.0,30.47,SW,230,9.0,10.0,100,-99.99,,,-99.99,,2013-02-13 13:00:00,
2013-02-13 05:11:00,48.0,48.0,30.47,SW,230,9.0,10.0,100,-99.99,,,-99.99,,2013-02-13 13:11:00,
2013-02-13 05:21:00,48.0,48.0,30.47,SW,230,9.0,10.0,100,-99.99,,,-99.99,,2013-02-13 13:21:00,
2013-02-13 05:31:00,48.0,48.0,30.47,SW,230,9.0,10.0,100,-99.99,,,-99.99,,2013-02-13 13:31:00,
2013-02-13 05:41:00,48.0,48.0,30.47,SW,230,9.0,10.0,100,-99.99,,,-99.99,,2013-02-13 13:41:00,
2013-02-13 05:51:00,48.0,48.0,30.47,SW,230,9.0,10.0,100,-99.99,,,-99.99,,2013-02-13 13:51:00,
2013-02-13 06:00:00,47.0,47.0,30.47,SW,230,11.0,13.0,100,-99.99,,,-99.99,,2013-02-13 14:00:00,
2013-02-13 06:21:00,47.0,47.0,30.47,SW,230,11.0,13.0,100,-99.99,,,-99.99,,2013-02-13 14:21:00,
2013-02-13 06:31:00,47.0,47.0,30.47,SW,230,11.0,13.0,100,-99.99,,,-99.99,,2013-02-13 14:31:00,
2013-02-13 06:41:00,47.0,47.0,30.47,SW,230,11.0,13.0,100,-99.99,,,-99.99,,2013-02-13 14:41:00,
2013-02-13 06:51:00,47.0,47.0,30.47,SW,230,11.0,13.0,100,-99.99,,,-99.99,,2013-02-13 14:51:00,
2013-02-13 07:00:00,47.0,47.0,30.47,SW,220,10.0,13.0,100,-99.99,,,-99.99,,2013-02-13 15:00:00,
2013-02-13 07:21:00,47.0,47.0,30.47,SW,220,10.0,13.0,100,-99.99,,,-99.99,,2013-02-13 15:21:00,
2013-02-13 07:31:00,47.0,47.0,30.47,SW,220,10.0,13.0,100,-99.99,,,-99.99,,2013-02-13 15:31:00,
2013-02-13 07:41:00,47.0,47.0,30.47,SW,220,10.0,13.0,100,-99.99,,,-99.99,,2013-02-13 15:41:00,
2013-02-13 07:51:00,47.0,47.0,30.47,SW,220,10.0,13.0,100,-99.99,,,-99.99,,2013-02-13 15:51:00,
2013-02-13 08:00:00,47.0,47.0,30.48,SSW,200,13.0,14.0,100,-99.99,,,-99.99,,2013-02-13 16:00:00,
2013-02-13 08:21:00,47.0,47.0,30.48,SSW,200,13.0,14.0,100,-99.99,,,-99.99,,2013-02-13 16:21:00,
2013-02-13 08:31:00,47.0,47.0,30.48,SSW,200,13.0,14.0,100,-99.99,,,-99.99,,2013-02-13 16:31:00,
2013-02-13 08:41:00,47.0,47.0,30.48,SSW,200,13.0,14.0,100,-99.99,,,-99.99,,2013-02-13 16:41:00,
2013-02-13 08:51:00,47.0,47.0,30.48,SSW,200,13.0,14.0,100,-99.99,,,-99.99,,2013-02-13 16:51:00,
2013-02-13 09:00:00,47.0,47.0,30.49,NW,310,7.0,8.0,100,-99.99,,,-99.99,,2013-02-13 17:00:00,
2013-02-13 09:21:00,47.0,47.0,30.49,NW,310,7.0,8.0,100,-99.99,,,-99.99,,2013-02-13 17:21:00,
2013-02-13 09:31:00,47.0,47.0,30.49,NW,310,7.0,8.0,100,-99.99,,,-99.99,,2013-02-13 17:31:00,
2013-02-13 09:41:00,47.0,47.0,30.49,NW,310,7.0,8.0,100,-99.99,,,-99.99,,2013-02-13 17:41:00,
2013-02-13 09:52:00,47.0,47.0,30.49,NW,310,7.0,8.0,100,-99.99,,,-99.99,,2013-02-13 17:52:00,
2013-02-13 10:00:00,48.0,48.0,30.51,NW,320,8.0,9.0,100,-99.99,,,-99.99,,2013-02-13 18:00:00,
2013-02-13 10:22:00,48.0,48.0,30.51,NW,320,8.0,9.0,100,-99.99,,,-99.99,,2013-02-13 18:22:00,
2013-02-13 10:31:00,48.0,48.0,30.51,NW,320,8.0,9.0,100,-99.99,,,-99.99,,2013-02-13 18:31:00,
2013-02-13 10:41:00,48.0,48.0,30.51,NW,320,8.0,9.0,100,-99.99,,,-99.99,,2013-02-13 18:41:00,
2013-02-13 10:51:00,48.0,48.0,30.51,NW,320,8.0,9.0,100,-99.99,,,-99.99,,2013-02-13 18:51:00,
2013-02-13 11:00:00,47.0,47.0,30.52,North,350,10.0,13.0,100,-99.99,,,-99.99,,2013-02-13 19:00:00,
2013-02-13 11:21:00,47.0,47.0,30.52,North,350,10.0,13.0,100,-99.99,,,-99.99,,2013-02-13 19:21:00,
2013-02-13 11:31:00,47.0,47.0,30.52,North,350,10.0,13.0,100,-99.99,,,-99.99,,2013-02-13 19:31:00,
2013-02-13 11:41:00,47.0,47.0,30.52,North,350,10.0,13.0,100,-99.99,,,-99.99,,2013-02-13 19:41:00,
2013-02-13 11:51:00,47.0,47.0,30.52,North,350,10.0,13.0,100,-99.99,,,-99.99,,2013-02-13 19:51:00,
2013-02-13 12:00:00,47.0,47.0,30.51,NNW,340,5.0,5.0,100,-99.99,,,-99.99,,2013-02-13 20:00:00,
2013-02-13 12:11:00,47.0,47.0,30.51,NNW,340,5.0,5.0,100,-99.99,,,-99.99,,2013-02-13 20:11:00,
2013-02-13 12:21:00,47.0,47.0,30.51,NNW,340,5.0,5.0,100,-99.99,,,-99.99,,2013-02-13 20:21:00,
2013-02-13 12:31:00,47.0,47.0,30.51,NNW,340,5.0,5.0,100,-99.99,,,-99.99,,2013-02-13 20:31:00,
2013-02-13 12:41:00,47.0,47.0,30.51,NNW,340,5.0,5.0,100,-99.99,,,-99.99,,2013-02-13 20:41:00,
2013-02-13 12:51:00,47.0,47.0,30.51,NNW,340,5.0,5.0,100,-99.99,,,-99.99,,2013-02-13 20:51:00,
2013-02-13 13:00:00,47.0,47.0,30.50,NW,310,3.0,5.0,100,-99.99,,,-99.99,,2013-02-13 21:00:00,
2013-02-13 13:21:00,47.0,47.0,30.50,NW,310,3.0,5.0,100,-99.99,,,-99.99,,2013-02-13 21:21:00,
2013-02-13 13:31:00,47.0,47.0,30.50,NW,310,3.0,5.0,100,-99.99,,,-99.99,,2013-02-13 21:31:00,
2013-02-13 13:42:00,47.0,47.0,30.50,NW,310,3.0,5.0,100,-99.99,,,-99.99,,2013-02-13 21:42:00,
2013-02-13 13:51:00,47.0,47.0,30.50,NW,310,3.0,5.0,100,-99.99,,,-99.99,,2013-02-13 21:51:00,
2013-02-13 14:00:00,48.0,48.0,30.49,WNW,290,6.0,6.0,100,-99.99,,,-99.99,,2013-02-13 22:00:00,
2013-02-13 14:21:00,48.0,48.0,30.49,WNW,290,6.0,6.0,100,-99.99,,,-99.99,,2013-02-13 22:21:00,
2013-02-13 14:31:00,48.0,48.0,30.49,WNW,290,6.0,6.0,100,-99.99,,,-99.99,,2013-02-13 22:31:00,
2013-02-13 14:41:00,48.0,48.0,30.49,WNW,290,6.0,6.0,100,-99.99,,,-99.99,,2013-02-13 22:41:00,
2013-02-13 14:51:00,48.0,48.0,30.49,WNW,290,6.0,6.0,100,-99.99,,,-99.99,,2013-02-13 22:51:00,
2013-02-13 15:00:00,48.0,48.0,30.49,WNW,300,3.0,5.0,100,-99.99,,,-99.99,,2013-02-13 23:00:00,
2013-02-13 15:11:00,48.0,48.0,30.49,WNW,300,3.0,5.0,100,-99.99,,,-99.99,,2013-02-13 23:11:00,
2013-02-13 15:21:00,48.0,48.0,30.49,WNW,300,3.0,5.0,100,-99.99,,,-99.99,,2013-02-13 23:21:00,
2013-02-13 15:31:00,48.0,48.0,30.49,WNW,300,3.0,5.0,100,-99.99,,,-99.99,,2013-02-13 23:31:00,
2013-02-13 15:41:00,48.0,48.0,30.49,WNW,300,3.0,5.0,100,-99.99,,,-99.99,,2013-02-13 23:41:00,
2013-02-13 15:51:00,48.0,48.0,30.49,WNW,300,3.0,5.0,100,-99.99,,,-99.99,,2013-02-13 23:51:00,
2013-02-13 16:00:00,49.0,49.0,30.49,WNW,290,3.0,5.0,100,-99.99,,,-99.99,,2013-02-14 00:00:00,
2013-02-13 16:21:00,49.0,49.0,30.49,WNW,290,3.0,5.0,100,-99.99,,,-99.99,,2013-02-14 00:21:00,
2013-02-13 16:31:00,49.0,49.0,30.49,WNW,290,3.0,5.0,100,-99.99,,,-99.99,,2013-02-14 00:31:00,
2013-02-13 16:41:00,49.0,49.0,30.49,WNW,290,3.0,5.0,100,-99.99,,,-99.99,,2013-02-14 00:41:00,
2013-02-13 16:51:00,49.0,49.0,30.49,WNW,290,3.0,5.0,100,-99.99,,,-99.99,,2013-02-14 00:51:00,
2013-02-13 17:00:00,48.0,47.0,30.48,West,260,2.0,2.0,98,-99.99,,,-99.99,,2013-02-14 01:00:00,
2013-02-13 17:21:00,48.0,47.0,30.48,West,260,2.0,2.0,98,-99.99,,,-99.99,,2013-02-14 01:21:00,
2013-02-13 17:31:00,48.0,47.0,30.48,West,260,2.0,2.0,98,-99.99,,,-99.99,,2013-02-14 01:31:00,
2013-02-13 17:41:00,48.0,47.0,30.48,West,260,2.0,2.0,98,-99.99,,,-99.99,,2013-02-14 01:41:00,
2013-02-13 17:51:00,48.0,47.0,30.48,West,260,2.0,2.0,98,-99.99,,,-99.99,,2013-02-14 01:51:00,
2013-02-13 18:00:00,48.0,47.0,30.50,NNW,330,2.0,3.0,97,-99.99,,,-99.99,,2013-02-14 02:00:00,
2013-02-13 18:21:00,48.0,47.0,30.50,NNW,330,2.0,3.0,97,-99.99,,,-99.99,,2013-02-14 02:21:00,
2013-02-13 18:31:00,48.0,47.0,30.50,NNW,330,2.0,3.0,97,-99.99,,,-99.99,,2013-02-14 02:31:00,
2013-02-13 18:41:00,48.0,47.0,30.50,NNW,330,2.0,3.0,97,-99.99,,,-99.99,,2013-02-14 02:41:00,
2013-02-13 18:51:00,48.0,47.0,30.50,NNW,330,2.0,3.0,97,-99.99,,,-99.99,,2013-02-14 02:51:00,
2013-02-13 19:00:00,47.0,47.0,30.50,SSE,150,3.0,3.0,100,-99.99,,,-99.99,,2013-02-14 03:00:00,
2013-02-13 19:11:00,47.0,47.0,30.50,SSE,150,3.0,3.0,100,-99.99,,,-99.99,,2013-02-14 03:11:00,
2013-02-13 19:21:00,47.0,47.0,30.50,SSE,150,3.0,3.0,100,-99.99,,,-99.99,,2013-02-14 03:21:00,
2013-02-13 19:31:00,47.0,47.0,30.50,SSE,150,3.0,3.0,100,-99.99,,,-99.99,,2013-02-14 03:31:00,
2013-02-13 19:42:00,47.0,47.0,30.50,SSE,150,3.0,3.0,100,-99.99,,,-99.99,,2013-02-14 03:42:00,
2013-02-13 19:51:00,47.0,47.0,30.50,SSE,150,3.0,3.0,100,-99.99,,,-99.99,,2013-02-14 03:51:00,
2013-02-13 20:00:00,45.0,45.0,30.50,East,90,5.0,6.0,100,-99.99,,,-99.99,,2013-02-14 04:00:00,
2013-02-13 20:21:00,45.0,45.0,30.50,East,90,5.0,6.0,100,-99.99,,,-99.99,,2013-02-14 04:21:00,
2013-02-13 20:31:00,45.0,45.0,30.50,East,90,5.0,6.0,100,-99.99,,,-99.99,,2013-02-14 04:31:00,
2013-02-13 20:41:00,45.0,45.0,30.50,East,90,5.0,6.0,100,-99.99,,,-99.99,,2013-02-14 04:41:00,
2013-02-13 20:51:00,45.0,45.0,30.50,East,90,5.0,6.0,100,-99.99,,,-99.99,,2013-02-14 04:51:00,
2013-02-13 21:00:00,45.0,45.0,30.51,North,0,0.0,0.0,100,-99.99,,,-99.99,,2013-02-14 05:00:00,
2013-02-13 21:21:00,45.0,45.0,30.51,North,0,0.0,0.0,100,-99.99,,,-99.99,,2013-02-14 05:21:00,
2013-02-13 21:31:00,45.0,45.0,30.51,North,0,0.0,0.0,100,-99.99,,,-99.99,,2013-02-14 05:31:00,
2013-02-13 21:41:00,45.0,45.0,30.51,North,0,0.0,0.0,100,-99.99,,,-99.99,,2013-02-14 05:41:00,
2013-02-13 21:51:00,45.0,45.0,30.51,North,0,0.0,0.0,100,-99.99,,,-99.99,,2013-02-14 05:51:00,
2013-02-13 22:00:00,45.0,45.0,30.52,ENE,70,2.0,2.0,100,-99.99,,,-99.99,,2013-02-14 06:00:00,
2013-02-13 22:21:00,45.0,45.0,30.52,ENE,70,2.0,2.0,100,-99.99,,,-99.99,,2013-02-14 06:21:00,
2013-02-13 22:31:00,45.0,45.0,30.52,ENE,70,2.0,2.0,100,-99.99,,,-99.99,,2013-02-14 06:31:00,
2013-02-13 22:41:00,45.0,45.0,30.52,ENE,70,2.0,2.0,100,-99.99,,,-99.99,,2013-02-14 06:41:00,
2013-02-13 22:51:00,45.0,45.0,30.52,ENE,70,2.0,2.0,100,-99.99,,,-99.99,,2013-02-14 06:51:00,
2013-02-13 23:00:00,45.0,45.0,30.53,East,100,5.0,5.0,100,-99.99,,,-99.99,,2013-02-14 07:00:00,
2013-02-13 23:21:00,45.0,45.0,30.53,East,100,5.0,5.0,100,-99.99,,,-99.99,,2013-02-14 07:21:00,
2013-02-13 23:31:00,45.0,45.0,30.53,East,100,5.0,5.0,100,-99.99,,,-99.99,,2013-02-14 07:31:00,
2013-02-13 23:41:00,45.0,45.0,30.53,East,100,5.0,5.0,100,-99.99,,,-99.99,,2013-02-14 07:41:00,
2013-02-13 23:51:00,45.0,45.0,30.53,East,100,5.0,5.0,100,-99.99,,,-99.99,,2013-02-14 07:51:00,